Regional Weather Roundup
Issued by NWS

Home | Current Version | Previous Version | Text Only | Print | Product List | Glossary Off
Versions: 1 2 3 4 5 6 7 8 9 10 11 12 13 14 15 16 17 18 19 20 21 22 23 24 25 26 27 28 29 30 31 32 33 34 35 36 37 38 39 40 41 42 43 44 45 46 47 48 49 50

000
ASUS43 KDTX 300101
RWRMI
MICHIGAN HOURLY REGIONAL WEATHER ROUNDUP
NATIONAL WEATHER SERVICE DETROIT/PONTIAC MI
900 PM EDT FRI AUG 29 2014

NOTE: "FAIR" INDICATES FEW OR NO CLOUDS BELOW 12,000 FEET WITH NO
SIGNIFICANT WEATHER AND/OR OBSTRUCTION TO VISIBILITY.

MIZ047>049-052>055-059>063-066>070-074>076-081>083-300200-
SOUTHEAST LOWER MICHIGAN

CITY           SKY/WX    TMP DP  RH WIND       PRES   REMARKS
ADRIAN         CLEAR     71  63  75 SE7       30.03R
ALMA           PTCLDY    70  65  83 SE5       29.98R
ANN ARBOR      PTCLDY    69  60  73 SE8       30.03R
BAD AXE        MOCLDY    67  55  64 S10       30.02S
CARO           PTCLDY    67  57  69 SE6       30.00S
DETROIT CITY   PTCLDY    71  57  61 SE9       30.04S
DETROIT        MOCLDY    70  58  65 E7        30.03S
FLINT          MOCLDY    72  52  49 S9        30.01R
GROSSE ILE     CLEAR     70  63  78 E8        30.02S
HILLSDALE      PTCLDY    75  66  74 SE3       30.02R
HOWELL         MOCLDY    70  62  75 SE12      30.01R

CITY           SKY/WX    TMP DP  RH WIND       PRES   REMARKS
JACKSON        MOCLDY    73  63  70 SE10      30.02R
LAMBERTVILLE   CLEAR     72  63  73 SE3       30.04R
LANSING        CLOUDY    74  64  71 SE12      29.99R
LAPEER         FAIR      66  55  65 SE6       30.03S
MASON          MOCLDY    71  64  77 SE8       30.00R
MONROE         CLEAR     72  63  73 SE7       30.01S
MT. CLEMENS    PTCLDY    68  57  67 SE9       30.04R
PONTIAC        MOCLDY    71  52  50 SE8       30.03R
PORT HOPE        N/A     69  56  62 S7        30.00S
PORT HURON     PTCLDY    68  55  64 SE6       30.05R
TRI CITIES     MOCLDY    70  56  61 SE7       29.99S
TROY           PTCLDY    72  52  49 SE6       30.05S
SAGINAW HB     MOCLDY    66  57  72 SE5       29.99S
$$
MIZ043>046-050>051-056>058-064>065-071>073-077>080-300200-
SOUTHWEST LOWER MICHIGAN

CITY           SKY/WX    TMP DP  RH WIND       PRES   REMARKS
BATTLE CREEK   MOCLDY    77  67  71 SE9       29.98S
BENTON HARBOR  CLOUDY    74  71  91 SE7       29.93F
BIG RAPIDS     MOCLDY    70  68  93 S7        29.96R
COLDWATER      PTCLDY    76  67  72 SE6       29.99S
FREMONT        MOCLDY    72  68  88 SE5       29.94R
HOLLAND        CLOUDY    76  71  85 SE9       29.94R
GRAND RAPIDS   MOCLDY    73  72  96 S7        29.96R
IONIA          FAIR      71  68  90 SE7       29.97R
KALAMAZOO      MOCLDY    75  68  78 SE5       29.97S
LUDINGTON      DRIZZLE   74  70  87 S9        29.90S
MARSHALL       MOCLDY    74  66  76 SE5       29.98S
MOUNT PLEASANT PTCLDY    70  64  79 SE7       29.97R
MUSKEGON       CLOUDY    75  69  81 SE8       29.93R
SOUTH HAVEN    CLOUDY    76  72  88 SE6       29.94R
$$
MIZ016>042-300200-
NORTHERN LOWER MICHIGAN

CITY           SKY/WX    TMP DP  RH WIND       PRES   REMARKS
ALPENA         MOCLDY    67  61  81 S10       29.96S
BEAVER ISLAND  CLOUDY    71  65  82 S9        29.87S
BELLAIRE       MOCLDY    71  63  74 S9        29.90R
CADILLAC       PTCLDY    69  66  91 SE8       29.96R
CHARLEVOIX     PTCLDY    71  65  81 S8        29.92S
FRANKFORT      PTCLDY    75  67  77 S8        29.88S
GAYLORD        PTCLDY    67  61  81 S15       29.95R
GRAYLING       MOCLDY    69  64  83 SE6       29.97R
HARBOR SPRINGS PTCLDY    71  63  76 CALM      29.90S
HOUGHTON LAKE  PTCLDY    67  61  81 S9        29.98R
MANISTEE       MOCLDY    73  66  78 S6        29.90S
OSCODA         CLOUDY    68  58  70 S6        29.98R
PELLSTON       PTCLDY    70  65  84 SE3       29.90S
ROGERS CITY    MOCLDY    68  64  88 S13G20    29.93S
TRAVERSE CITY  MOCLDY    73  65  75 VRB5      29.89R
$$
MIZ007>008-015-300200-
EASTERN UPPER MICHIGAN

CITY           SKY/WX    TMP DP  RH WIND       PRES   REMARKS
KINROSS        CLOUDY    63  63 100 SE12      29.90S
MACKINAC ISLAN PTCLDY    66  65  96 SE9       29.89S
NEWBERRY       CLOUDY    64  63  98 S6        29.87S
S. S. MARIE    CLOUDY    61  59  93 E9        29.91S
$$
MIZ004>006-011>014-085-300200-
CENTRAL UPPER MICHIGAN

CITY           SKY/WX    TMP DP  RH WIND       PRES   REMARKS
MANISTIQUE     CLOUDY    64  64  97 SE6       29.85F
ESCANABA       PTCLDY    66  63  88 CALM      29.83S
MENOMINEE      MOCLDY    72  66  83 S6        29.80F
SAWYER-GWINN   CLOUDY    66  66 100 SW7       29.83F FOG
$$
MIZ001>003-009>011-084-300200-
WESTERN UPPER MICHIGAN

CITY           SKY/WX    TMP DP  RH WIND       PRES   REMARKS
IRON MOUNTAIN  CLOUDY    69  67  93 CALM      29.83R FOG
HOUGHTON       LGT RAIN  63  61  93 CALM      29.77F VSB 1/4
COPPER HARBOR    N/A     63  61  93 W6        29.76S
$$

ABBREVIATIONS USED IN REMARKS
   TC - TEMPERATURE IN CELSIUS
  WCI - WIND CHILL INDEX
   HX - HEAT INDEX
  VSB - VISIBILITY



USA.gov is the U.S. government's official web portal to all federal, state and local government web resources and services.